This demonstration page uses our WeatherBlox Daily Observations layout. Learn more.

Left ArrowRight Arrow

39.29038, -76.61219

Hourly Observations for March 6, 2018

Temp ( °F °C ) Dew Point ( °F °C ) Humidity (%) Winds ( mph kmh ) Pressure ( in mb ) Visibility ( mi km ) Precip ( " mm )
12:54 am 00:54 undefined 37 2.8 22 -5.6 54 54 undefined N/A 30.11 1020 N/A 0.00 0.00
1:54 am 01:54 undefined 36 2.2 22 -5.6 57 57 undefined N/A 30.10 1019 N/A 0.00 0.00
2:54 am 02:54 undefined 35 1.7 23 -5 61 61 undefined N/A 30.07 1018 N/A 0.00 0.00
3:54 am 03:54 undefined 34 1.1 22 -5.6 61 61 undefined N/A 30.06 1018 N/A 0.00 0.00
4:54 am 04:54 undefined 34 1.1 22 -5.6 61 61 undefined N/A 30.07 1018 N/A 0.00 0.00
5:54 am 05:54 undefined 34 1.1 22 -5.6 61 61 undefined N/A 30.08 1019 N/A 0.00 0.00
6:54 am 06:54 undefined 34 1.1 23 -5 64 64 undefined N/A 30.08 1019 N/A 0.00 0.00
7:54 am 07:54 undefined 36 2.2 24 -4.4 62 62 undefined N/A 30.08 1019 N/A 0.00 0.00
8:54 am 08:54 undefined 37 2.8 24 -4.4 59 59 undefined N/A 30.08 1019 N/A 0.00 0.00
9:54 am 09:54 undefined 39 3.9 25 -3.9 57 57 undefined N/A 30.07 1018 N/A 0.00 0.00
10:54 am 10:54 undefined 41 5 28 -2.2 60 60 undefined N/A 30.04 1017 N/A 0.00 0.00
11:54 am 11:54 undefined 42 5.6 27 -2.8 55 55 undefined N/A 30.03 1017 N/A 0.00 0.00
12:54 pm 12:54 undefined 42 5.6 29 -1.7 60 60 undefined N/A 29.99 1016 N/A 0.00 0.00
1:54 pm 13:54 undefined 45 7.2 26 -3.3 48 48 undefined N/A 29.97 1015 N/A 0.00 0.00
2:54 pm 14:54 undefined 44 6.7 27 -2.8 51 51 undefined N/A 29.96 1014 N/A 0.00 0.00
3:54 pm 15:54 undefined 44 6.7 25 -3.9 47 47 undefined N/A 29.93 1013 N/A 0.00 0.00
4:54 pm 16:54 undefined 44 6.7 24 -4.4 45 45 undefined N/A 29.93 1014 N/A 0.00 0.00
5:54 pm 17:54 undefined 42 5.6 27 -2.8 55 55 undefined N/A 29.93 1014 N/A 0.00 0.00
6:54 pm 18:54 undefined 42 5.6 31 -0.6 65 65 undefined N/A 29.90 1013 N/A 0.00 0.00
7:54 pm 19:54 undefined 42 5.6 31 -0.6 65 65 undefined N/A 29.91 1013 N/A 0.00 0.00
8:54 pm 20:54 undefined 39 3.9 35 1.7 86 86 undefined N/A 29.87 1012 N/A 0.03 0.76
9:54 pm 21:54 undefined 36 2.2 34 1.1 93 93 undefined N/A 29.89 1012 N/A 0.06 1.52
10:54 pm 22:54 undefined 34 1.1 33 0.6 97 97 undefined N/A 29.87 1011 N/A 0.07 1.78
11:54 pm 23:54 undefined 34 1.1 32 0 92 92 undefined N/A 29.86 1011 N/A 0.07 1.78

Powered by AerisWeather